STARLINK-35522

Last updated on Sun Dec 07 2025 00:02:05 GMT+0000 (Coordinated Universal Time)

1 66341U 25253Y 25340.58335648 .00104946 00000+0 24891-2 0 9992 2 66341 43.0008 20.9043 0000972 269.2677 150.7933 15.40652758 6032
UTC large
Height (km)
Speed (km/s)
/
Latitude / Longitude
Inclination (degrees)
Orbital Period (minutes)
Azimuth
Elevation
Range (km)
Doppler Factor

Next 0 passes for location: London (51.5072 / 0.1276)

Sorry there are no passes over London.